Lake Guntersville Weather Center

Moon Phase Calendar



Lake Guntersville Water Level
Online Cameras

 


      

Current Conditions in Keel (historical)
5/22/2022 12:47:21 PM

84°F
Feels Like 85
Clouds
Humidity
47%
Pressure
30.09"
Wind
9.2 mph (SSW)
Dew Point
62°F
UV Index
10/10 (Very High)
Visibility
4 mi

Hourly Forecast

Date & Time Sun, May 22
12:00 PM
Sun, May 22
1:00 PM
Sun, May 22
2:00 PM
Sun, May 22
3:00 PM
Sun, May 22
4:00 PM
Sun, May 22
5:00 PM
Sun, May 22
6:00 PM
Sun, May 22
7:00 PM
Sun, May 22
8:00 PM
Sun, May 22
9:00 PM
Sun, May 22
10:00 PM
Sun, May 22
11:00 PM
Mon, May 23
12:00 AM
Mon, May 23
1:00 AM
Mon, May 23
2:00 AM
Mon, May 23
3:00 AM
Mon, May 23
4:00 AM
Mon, May 23
5:00 AM
Mon, May 23
6:00 AM
Mon, May 23
7:00 AM
Mon, May 23
8:00 AM
Mon, May 23
9:00 AM
Mon, May 23
10:00 AM
Mon, May 23
11:00 AM
Mon, May 23
12:00 PM
Mon, May 23
1:00 PM
Mon, May 23
2:00 PM
Mon, May 23
3:00 PM
Mon, May 23
4:00 PM
Mon, May 23
5:00 PM
Mon, May 23
6:00 PM
Mon, May 23
7:00 PM
Mon, May 23
8:00 PM
Mon, May 23
9:00 PM
Mon, May 23
10:00 PM
Mon, May 23
11:00 PM
Tue, May 24
12:00 AM
Tue, May 24
1:00 AM
Tue, May 24
2:00 AM
Tue, May 24
3:00 AM
Tue, May 24
4:00 AM
Tue, May 24
5:00 AM
Tue, May 24
6:00 AM
Tue, May 24
7:00 AM
Tue, May 24
8:00 AM
Tue, May 24
9:00 AM
Tue, May 24
10:00 AM
Tue, May 24
11:00 AM
Condition
Rain

Clouds

Clouds

Clouds

Rain

Rain

Rain

Rain

Rain

Rain

Rain

Rain

Clouds

Clouds

Rain

Rain

Rain

Rain

Rain

Rain

Rain

Rain

Rain

Rain

Rain

Rain

Rain

Rain

Rain

Rain

Rain

Rain

Clouds

Clouds

Clouds

Clouds

Clouds

Clouds

Clouds

Clouds

Clouds

Clouds

Clouds

Clouds

Clouds

Clouds

Clouds

Clouds
Temperature 84°F84°F84°F85°F84°F78°F71°F69°F68°F68°F67°F67°F66°F66°F65°F65°F65°F65°F65°F66°F66°F66°F67°F68°F69°F70°F71°F71°F72°F71°F71°F69°F66°F65°F65°F64°F63°F63°F62°F61°F61°F61°F61°F63°F65°F67°F72°F75°F
Feels Like 85°F85°F85°F86°F86°F79°F73°F70°F69°F69°F68°F68°F67°F67°F66°F66°F66°F66°F66°F67°F67°F67°F68°F68°F70°F71°F72°F72°F72°F72°F72°F70°F67°F66°F65°F65°F64°F63°F63°F62°F61°F61°F61°F63°F65°F68°F72°F76°F
Cloudiness 98%98%96%82%81%80%81%84%100%100%100%100%100%100%100%100%100%100%100%100%100%100%100%100%100%100%100%100%100%100%100%100%100%100%100%100%100%100%100%100%100%100%100%100%100%100%100%95%
Visibility 6 mi6 mi6 mi6 mi6 mi3 mi6 mi4 mi2 mi5 mi6 mi6 mi6 mi6 mi6 mi6 mi6 mi6 mi6 mi6 mi6 mi6 mi6 mi6 mi6 mi6 mi6 mi6 mi6 mi6 mi6 mi6 mi6 mi6 mi6 mi6 mi6 mi6 mi6 mi6 mi6 mi6 mi6 mi6 mi6 mi6 mi6 mi6 mi
Precipitation 34%75%75%75%84%95%100%100%100%100%100%100%80%80%56%76%73%73%80%100%89%82%82%90%90%90%80%78%79%79%79%75%0%0%0%0%0%0%0%0%0%0%0%0%0%0%0%7%
Humidity 50%47%50%50%52%76%94%94%98%98%98%99%98%97%97%98%98%99%99%99%98%98%97%94%91%89%86%83%85%88%90%92%95%97%97%97%98%98%98%98%98%98%98%97%96%94%85%74%
Dew Point 63°F62°F64°F64°F65°F70°F69°F67°F67°F67°F66°F65°F65°F64°F64°F64°F64°F64°F64°F64°F65°F65°F65°F65°F66°F66°F66°F66°F66°F66°F67°F66°F64°F64°F63°F62°F62°F61°F61°F60°F60°F59°F60°F61°F63°F64°F66°F66°F
Pressure 30.09"30.09"30.09"30.09"30.06"30.06"30.09"30.09"30.12"30.12"30.15"30.15"30.12"30.12"30.12"30.09"30.09"30.09"30.09"30.09"30.09"30.09"30.09"30.09"30.09"30.06"30.06"30.03"30.03"30.03"30.03"30.03"30.03"30.06"30.06"30.06"30.03"30.03"30"30"30"30.03"30.03"30.03"30.03"30.03"30.03"30.03"
Wind Speed 7.4 mph7 mph5 mph5.2 mph5.7 mph4.1 mph6.2 mph11.2 mph8.1 mph0.9 mph4.4 mph4.9 mph4.1 mph3.5 mph5.6 mph5.6 mph4.6 mph3 mph3.1 mph3.2 mph3.1 mph3.5 mph4.4 mph4.4 mph3.8 mph4.8 mph5.1 mph4 mph3.4 mph3.2 mph2.8 mph1.7 mph2.3 mph3.2 mph3.3 mph3.1 mph3.8 mph3.7 mph5 mph3.9 mph4.8 mph3.4 mph3.9 mph4.1 mph5 mph6.6 mph7.9 mph8 mph
Wind
Direction
200°
SSW
204°
SSW
233°
SW
285°
WNW
311°
NW
265°
W
57°
ENE
107°
ESE
142°
SE
38°
NE
10°
N
23°
NNE
63°
ENE
95°
E
112°
ESE
118°
ESE
124°
SE
111°
ESE
90°
E
79°
E
71°
ENE
88°
E
107°
ESE
115°
ESE
102°
ESE
83°
E
77°
ENE
67°
ENE
63°
ENE
66°
ENE
55°
NE
31°
NNE
66°
ENE
94°
E
101°
E
81°
E
86°
E
86°
E
73°
ENE
85°
E
97°
E
89°
E
68°
ENE
83°
E
101°
E
109°
ESE
132°
SE
160°
SSE

Daily Forecast

Date High Low Precip. Humidity
Today
May 22

Rain
84 °F
65 °F
100%
50%
Monday
May 23

Rain
68 °F
65 °F
100%
94%
Tuesday
May 24

Rain
72 °F
64 °F
88%
93%
Wednesday
May 25

Rain
82 °F
65 °F
100%
63%
Thursday
May 26

Rain
76 °F
60 °F
100%
97%
Friday
May 27

Clear
81 °F
55 °F
0%
45%
Saturday
May 28

Clear
84 °F
62 °F
0%
43%
Sunday
May 29

Clouds
86 °F
63 °F
0%
45%
Monday
May 30

Clear
90 °F
65 °F
0%
49%
Tuesday
May 31

Clear
89 °F
68 °F
0%
48%
Wednesday
Jun 1

Clouds
86 °F
71 °F
33%
55%
Thursday
Jun 2

Rain
83 °F
69 °F
95%
78%
Friday
Jun 3

Clear
90 °F
66 °F
5%
46%
Saturday
Jun 4

Clear
93 °F
69 °F
0%
50%
Sunday
Jun 5

Rain
94 °F
73 °F
20%
51%
Monday
Jun 6

Clouds
95 °F
74 °F
6%
43%

Temperature 8-14 Day Outlook



Precipitation 8-14 Day Outlook




Quick Links
Lake Guntersville News
Lake Guntersville Photos
Lake Guntersville Videos




About Us
Contact Us
Site Map
Search Site
Advertise With Us
   
www.LakeGuntersville.info
THE LAKE GUNTERSVILLE WEBSITE

Copyright 2022, Lakes Online
Privacy    |    Legal